Location: Casalecchio di Reno
(44.4760°N, 11.2757°E)
Time: 09:37:13
(UTC+02:00)

AO-73 - Pass Details

Date: 20 June 2024
Orbit: 555 x 624 km, 97.7° (Epoch: 17 July)

Event Time Altitude Azimuth Distance (km) Brightness Sun altitude
Rises 04:46:22 0° 8° (N) 2,755 ? -6.9°
Reaches altitude 10° 04:48:32 10° 4° (N) 1,851 ? -6.6°
Maximum altitude 04:52:26 56° 287° (WNW) 668 ? -6.1°
Drops below altitude 10° 04:56:19 10° 209° (SSW) 1,837 ? -5.6°
Enters shadow 04:57:24 - 206° (SSW) 2,284 ? -5.4°
